Boone, IA

3:56 AM CST on February 06, 2016 (GMT -0600)
Boone Municipal

Weather History for KBNW - July, 2013

Change the Weather History Date:

Thursday, July 4, 2013

  Actual Average Record
Temperature  
Mean Temperature 72 °F -  
Max Temperature 83 °F 85 °F 99 °F (1977)
Min Temperature 61 °F 61 °F 45 °F (1972)
Cooling Degree Days 7    
Growing Degree Days 22 (Base 50)    
Moisture  
Dew Point 57 °F    
Average Humidity 60    
Maximum Humidity 89    
Minimum Humidity 35    
Precipitation  
Precipitation 0.00 in - - ()
Sea Level Pressure  
Sea Level Pressure 30.01 in    
Wind  
Wind Speed 6 mph (South)    
Max Wind Speed 14 mph    
Max Gust Speed 21 mph    
Visibility 10 miles    
Events      
Averages and records for this station are not official NWS values.
T = Trace of Precipitation, MM = Missing Value Source: NWS Daily Summary

Daily Weather History Graph

Daily Weather History Graph

Search for Another Location

Airport or City:

Trip Planner

Search our weather history database for the weather conditions in past years. The results will help you decide how hot, cold, wet, or windy it might be!

Date:

Astronomy

Jul. 04, 2013 Rise Set
Actual Time 5:45 AM CDT 8:54 PM CDT
Civil Twilight 5:11 AM CDT 9:28 PM CDT
Nautical Twilight 4:27 AM CDT 10:12 PM CDT
Astronomical Twilight 3:34 AM CDT 11:04 PM CDT
Moon 3:03 AM CDT (7/4) 5:58 PM CDT (7/4)
Length of Visible Light 16h 17m
Length of Day
15h 09m
Waning Crescent, 11% of the Moon is Illuminated
Jul 4
Waning Crescent
Jul 8
New
Jul 15
First Quarter
Jul 22
Full
Jul 29
Last Quarter

Hourly Weather History & Observations

Time (CDT) Temp. Heat Index Dew Point Humidity Pressure Visibility Wind Dir Wind Speed Gust Speed Precip Events Conditions
12:15 AM 66.2 °F - 58.6 °F 77% 30.03 in 10.0 mi SE 6.9 mph - N/A   Clear
12:35 AM 65.3 °F - 59.0 °F 80% 30.04 in 10.0 mi SE 5.8 mph - N/A   Scattered Clouds
12:55 AM 65.3 °F - 59.0 °F 80% 30.03 in 10.0 mi SSE 6.9 mph - N/A   Clear
1:15 AM 64.4 °F - 59.2 °F 83% 30.03 in 10.0 mi South 3.5 mph - N/A   Scattered Clouds
1:35 AM 63.5 °F - 59.0 °F 85% 30.03 in 10.0 mi South 4.6 mph - N/A   Scattered Clouds
1:55 AM 63.0 °F - 59.0 °F 87% 30.02 in 10.0 mi SE 5.8 mph - N/A   Scattered Clouds
2:15 AM 63.0 °F - 59.0 °F 87% 30.02 in 10.0 mi SSE 4.6 mph - N/A   Clear
2:35 AM 63.0 °F - 59.2 °F 87% 30.02 in 10.0 mi SSE 4.6 mph - N/A   Clear
2:55 AM 62.6 °F - 58.8 °F 87% 30.02 in 10.0 mi SSE 3.5 mph - N/A   Clear
3:15 AM 62.1 °F - 58.5 °F 88% 30.02 in 10.0 mi Calm Calm - N/A   Clear
3:35 AM 61.3 °F - 58.1 °F 89% 30.02 in 10.0 mi Calm Calm - N/A   Clear
3:55 AM 61.9 °F - 58.1 °F 87% 30.02 in 10.0 mi South 3.5 mph - N/A   Clear
4:15 AM 62.8 °F - 58.5 °F 86% 30.02 in 10.0 mi Calm Calm - N/A   Scattered Clouds
4:35 AM 63.3 °F - 58.5 °F 84% 30.02 in 10.0 mi Calm Calm - N/A   Overcast
4:55 AM 62.4 °F - 58.8 °F 88% 30.03 in 10.0 mi Calm Calm - N/A   Overcast
5:15 AM 62.8 °F - 58.1 °F 85% 30.03 in 10.0 mi SW 3.5 mph - N/A   Mostly Cloudy
5:35 AM 62.4 °F - 58.1 °F 86% 30.03 in 10.0 mi Calm Calm - N/A   Mostly Cloudy
5:55 AM 62.6 °F - 58.1 °F 85% 30.03 in 10.0 mi Calm Calm - N/A   Overcast
6:15 AM 62.2 °F - 58.3 °F 87% 30.03 in 10.0 mi SSE 3.5 mph - N/A   Mostly Cloudy
6:35 AM 62.2 °F - 58.5 °F 87% 30.04 in 10.0 mi SE 3.5 mph - N/A   Scattered Clouds
6:55 AM 63.9 °F - 58.5 °F 83% 30.04 in 10.0 mi SSE 4.6 mph - N/A   Scattered Clouds
7:15 AM 64.8 °F - 58.6 °F 81% 30.04 in 10.0 mi SSE 4.6 mph - N/A   Clear
7:35 AM 66.2 °F - 57.7 °F 74% 30.05 in 10.0 mi South 4.6 mph - N/A   Clear
7:55 AM 67.1 °F - 56.7 °F 69% 30.05 in 10.0 mi SSE 4.6 mph - N/A   Clear
8:15 AM 68.0 °F - 56.1 °F 66% 30.05 in 10.0 mi South 6.9 mph - N/A   Clear
8:35 AM 69.4 °F - 56.3 °F 63% 30.05 in 10.0 mi South 3.5 mph - N/A   Clear
8:55 AM 71.1 °F - 56.3 °F 60% 30.05 in 10.0 mi South 4.6 mph - N/A   Clear
9:15 AM 71.8 °F - 56.3 °F 58% 30.05 in 10.0 mi SSW 5.8 mph - N/A   Clear
9:35 AM 72.5 °F - 56.5 °F 57% 30.04 in 10.0 mi SSW 5.8 mph - N/A   Clear
9:55 AM 73.6 °F - 56.1 °F 54% 30.04 in 10.0 mi SSW 6.9 mph - N/A   Clear
10:15 AM 74.8 °F - 57.4 °F 54% 30.04 in 10.0 mi SSW 6.9 mph - N/A   Clear
10:35 AM 76.1 °F - 56.8 °F 51% 30.04 in 10.0 mi SW 6.9 mph - N/A   Clear
10:55 AM 77.2 °F - 57.0 °F 50% 30.04 in 10.0 mi SSW 6.9 mph - N/A   Clear
11:15 AM 78.3 °F - 57.6 °F 49% 30.04 in 10.0 mi South 6.9 mph - N/A   Clear
11:35 AM 78.6 °F - 56.5 °F 46% 30.04 in 10.0 mi SSW 8.1 mph - N/A   Clear
11:55 AM 79.7 °F - 57.2 °F 46% 30.04 in 10.0 mi South 10.4 mph - N/A   Clear
12:15 PM 80.2 °F 80.4 °F 55.8 °F 43% 30.03 in 10.0 mi South 8.1 mph - N/A   Clear
12:35 PM 80.8 °F 80.5 °F 54.7 °F 40% 30.03 in 10.0 mi South 9.2 mph 16.1 mph N/A   Clear
12:55 PM 81.5 °F 81.3 °F 56.3 °F 42% 30.03 in 10.0 mi SSW 11.5 mph - N/A   Clear
1:15 PM 82.0 °F 81.5 °F 55.2 °F 40% 30.03 in 10.0 mi South 9.2 mph - N/A   Clear
1:35 PM 82.0 °F 81.4 °F 54.9 °F 39% 30.02 in 10.0 mi South 8.1 mph - N/A   Clear
1:55 PM 82.4 °F 81.7 °F 54.9 °F 39% 30.02 in 10.0 mi South 12.7 mph - N/A   Clear
2:15 PM 82.4 °F 81.4 °F 54.0 °F 37% 30.01 in 10.0 mi SSE 12.7 mph 19.6 mph N/A   Scattered Clouds
2:35 PM 82.8 °F 81.9 °F 55.0 °F 38% 30.01 in 10.0 mi South 12.7 mph 18.4 mph N/A   Scattered Clouds
2:55 PM 83.1 °F 81.9 °F 53.6 °F 36% 30.01 in 10.0 mi SSW 8.1 mph 20.7 mph N/A   Scattered Clouds
3:15 PM 83.1 °F 81.9 °F 53.6 °F 36% 30.01 in 10.0 mi South 13.8 mph 18.4 mph N/A   Clear
3:35 PM 83.8 °F 82.6 °F 54.3 °F 36% 30.01 in 10.0 mi SSW 10.4 mph - N/A   Scattered Clouds
3:55 PM 83.7 °F 82.3 °F 53.6 °F 35% 30.01 in 10.0 mi SSE 11.5 mph 17.3 mph N/A   Clear
4:15 PM 83.5 °F 82.2 °F 53.6 °F 36% 30.00 in 10.0 mi South 10.4 mph - N/A   Clear
4:35 PM 83.7 °F 82.3 °F 53.1 °F 35% 29.99 in 10.0 mi South 8.1 mph 17.3 mph N/A   Scattered Clouds
4:55 PM 82.8 °F 81.7 °F 54.1 °F 37% 29.99 in 10.0 mi SSW 10.4 mph - N/A   Scattered Clouds
5:15 PM 82.8 °F - 52.9 °F 36% 29.99 in 10.0 mi South 10.4 mph - N/A   Clear
5:35 PM 82.0 °F 81.2 °F 53.4 °F 37% 29.98 in 10.0 mi South 12.7 mph 17.3 mph N/A   Clear
5:55 PM 82.0 °F 81.2 °F 53.6 °F 37% 29.98 in 10.0 mi South 11.5 mph 17.3 mph N/A   Clear
6:15 PM 81.7 °F 81.0 °F 53.6 °F 38% 29.98 in 10.0 mi South 10.4 mph 18.4 mph N/A   Clear
6:35 PM 81.5 °F - 52.9 °F 37% 29.97 in 10.0 mi South 10.4 mph - N/A   Clear
6:55 PM 80.8 °F 80.5 °F 54.1 °F 40% 29.97 in 10.0 mi South 9.2 mph 16.1 mph N/A   Clear
7:15 PM 80.4 °F 80.3 °F 54.7 °F 41% 29.97 in 10.0 mi South 9.2 mph - N/A   Clear
7:35 PM 79.7 °F - 54.1 °F 41% 29.97 in 10.0 mi South 9.2 mph - N/A   Clear
7:55 PM 78.6 °F - 54.7 °F 43% 29.97 in 10.0 mi South 4.6 mph - N/A   Clear
8:15 PM 77.2 °F - 55.4 °F 47% 29.97 in 10.0 mi South 5.8 mph - N/A   Clear
8:35 PM 74.7 °F - 55.9 °F 52% 29.96 in 10.0 mi SSE 4.6 mph - N/A   Clear
8:55 PM 72.3 °F - 56.7 °F 58% 29.96 in 10.0 mi SSE 4.6 mph - N/A   Clear
9:15 PM 71.1 °F - 56.8 °F 61% 29.97 in 10.0 mi SSE 5.8 mph - N/A   Clear
9:35 PM 70.0 °F - 57.2 °F 64% 29.97 in 10.0 mi SSE 4.6 mph - N/A   Clear
9:55 PM 69.8 °F - 57.4 °F 65% 29.98 in 10.0 mi SSE 6.9 mph - N/A   Clear
10:15 PM 70.0 °F - 57.0 °F 63% 29.98 in 10.0 mi SSE 6.9 mph - N/A   Clear
10:35 PM 69.8 °F - 56.8 °F 63% 29.99 in 10.0 mi SSE 8.1 mph - N/A   Clear
10:55 PM 69.1 °F - 57.2 °F 66% 29.99 in 10.0 mi SSE 6.9 mph - N/A   Clear
11:15 PM 68.4 °F - 57.4 °F 68% 29.99 in 10.0 mi SSE 5.8 mph - N/A   Clear
11:35 PM 68.0 °F - 57.7 °F 70% 29.99 in 10.0 mi SSE 5.8 mph - N/A   Clear
11:55 PM 67.1 °F - 58.1 °F 73% 29.99 in 10.0 mi SSE 6.9 mph - N/A   Clear